Regional Weather Roundup
Issued by NWS Upton, NY

Home | Current Version | Previous Version | Text Only | Print | Product List | Glossary On
Versions: 1 2 3 4 5 6 7 8 9 10 11 12 13 14 15 16 17 18 19 20 21 22 23 24 25 26 27
000
ASUS41 KOKX 212009
RWROKX

REGIONAL WEATHER ROUNDUP
NATIONAL WEATHER SERVICE NEW YORK NY
400 PM EDT MON AUG 21 2017

NOTE: "FAIR" INDICATES FEW OR NO CLOUDS BELOW 12,000 FEET WITH NO
SIGNIFICANT WEATHER AND/OR OBSTRUCTIONS TO VISIBILITY.

NYZ071-072-176-178-NJZ106-104-212100-
NEW YORK CITY METRO AREA

CITY           SKY/WX    TMP DP  RH WIND       PRES   REMARKS
Central Park   CLOUDY    82  67  60 VRB3      30.16S
Bronx Bot Gard   N/A     82  64  54 S1        30.13S
LaGuardia APRT PTSUNNY   85  66  53 S12       30.13S
Kennedy INTL   PTSUNNY   82  69  64 S17       30.15F
Breezy Point     N/A     77 N/A N/A S16         N/A
Newark/Liberty PTSUNNY   85  65  51 SW6       30.12F
Teterboro      MOSUNNY   86  67  52 S9        30.11F
$$

NYZ177-179-078>081-212100-
LONG ISLAND NEW YORK

CITY           SKY/WX    TMP DP  RH WIND       PRES   REMARKS
Jones Beach      N/A     79 N/A N/A S8G16       N/A
Matinecock PT    N/A     82 N/A N/A SW9G15      N/A
Farmingdale    MOSUNNY   82  65  56 S14       30.15S
MacArthur/ISP  PTSUNNY   82  63  52 SW13      30.14S
Shirley        MOSUNNY   83  65  54 SW12G17   30.15S
Mt Sinai Harb    N/A     81 N/A N/A SW6         N/A
Westhampton    MOSUNNY   80  62  54 SW10      30.16S
East Hampton   FAIR      81  63  53 W12G17    30.14S
Montauk          N/A     81  66  60 SW9       30.14F
$$

NYZ052-065-067-212100-
HUDSON VALLEY

CITY           SKY/WX    TMP DP  RH WIND       PRES   REMARKS
White Plains   MOSUNNY   82  64  54 S8        30.13F
Larchmont Harb   N/A     79 N/A N/A S16         N/A
Croton On Huds   N/A     84 N/A N/A SW8         N/A
Newburgh       MOSUNNY   82  70  65 W7        30.14S
Montgomery     CLOUDY    83  70  64 S6        30.12S
Poughkeepsie   MOSUNNY   83  65  54 SW6       30.10F
Albany         MOSUNNY   84  63  49 S9        30.09F
$$

NJZ001-105-106-008-010-013-015-019>022-104-212100-
NEW JERSEY

CITY           SKY/WX    TMP DP  RH WIND       PRES   REMARKS
Newark/Liberty PTSUNNY   85  65  51 SW6       30.12F
Teterboro      MOSUNNY   86  67  52 S9        30.11F
Caldwell       SUNNY     84  69  60 VRB6      30.12F
Somerville     PTSUNNY   85  70  60 S6        30.11F
Linden         MOCLDY    85  64  47 SW6       30.13S
Perth Amboy      N/A     82 N/A N/A S12         N/A
Sussex         SUNNY     83  71  67 VRB7      30.12F
Andover          N/A     83  69  62 VRB6      30.14F
Trenton        MOSUNNY   85  68  56 S9        30.13F
Millville      SUNNY     84  72  67 S8G17     30.15F
Atlantic City  MOSUNNY   81  70  69 S12G22    30.16F
Wrightstown    MOSUNNY   83  69  62 S7        30.11F
Toms River     MOSUNNY   83  68  60 S13       30.16S
Belmar         CLOUDY    81  67  62 S9        30.16F
$$

PAZ047>061-062-071-212100-
EASTERN PENNSYLVANIA

CITY           SKY/WX    TMP DP  RH WIND       PRES   REMARKS
Philadelphia   CLOUDY    84  66  54 S10       30.15S
Allentown      SUNNY     85  71  63 SW10      30.13F HX  90
Scranton       MOSUNNY   85  69  58 SW8       30.13F
$$

CTZ002-004>006-009-010-012-RIZ004-006-007-MAZ004-011-015-212100-
SOUTHERN NEW ENGLAND
 IN CT

CITY           SKY/WX    TMP DP  RH WIND       PRES   REMARKS
Bradley INTL   PTSUNNY   84  62  47 SW10      30.11S
Hartford       MOSUNNY   86  62  44 SW10      30.10S
Danbury        CLOUDY    83  64  52 SW7       30.14F
Wtrbury/Oxford CLOUDY    81  66  60 S6        30.16S
Norwalk Harbor   N/A     79 N/A N/A S8          N/A
Bridgeport     MOSUNNY   82  66  58 S12       30.12F
Meriden        CLOUDY    83  66  56 S5        30.12S
New Haven      CLOUDY    83  62  49 S7        30.13S
Chester        FAIR      81  64  57 CALM      30.14S
Groton         CLOUDY    78  65  63 SW14      30.11F
Wilimantic     MOSUNNY   84  64  50 W8        30.11F

 IN RI

CITY           SKY/WX    TMP DP  RH WIND       PRES   REMARKS
Providence     CLOUDY    86  64  47 SW10      30.11S
Block Island   CLOUDY    76  68  76 SW14      30.14S
Westerly       PTSUNNY   80  66  62 SW8       30.13F
 IN MA

CITY           SKY/WX    TMP DP  RH WIND       PRES   REMARKS
Boston         PTSUNNY   85  63  47 SW13G21   30.08S
Worcester      PTSUNNY   80  59  48 SW9       30.14S
Westfield      PTSUNNY   85  60  42 SW10      30.10S
Provincetown   CLOUDY    82  65  56 S10       30.10F
Nantucket      SUNNY     76  68  76 SW10      30.13S
$$

ANZ330-335-338-340-345-350-353-355-212100-
COASTAL MARINE OBSERVATIONS


STATION/POSITION TIME  SKY/WX   TEMP    WIND        PRES    VSBY  WAVE
                                AIR SEA DIR/SP/G                  HT/PER
                 (UTC)          (F)     (DEG/KT/KT) (MB)    (MI)  (FT/S)
NY HARB ENTRANCE 1950            78 77  200/ 17/ 21 1020.0          2/ 8
GREAT SOUTH BAY  1930            77 80  210/ 12/ 14   N/A
23 SSW MONTAUK P 1950            74 73              1021.0          2/ 8
15 E BARNEGAT LI 1930               78                N/A           2/ 7
HUDSON CANYON    1950            76 76  220/ 10/ 12 1021.1          2/ 8
KINGS POINT      1948            80 76  210/ 13/ 15 1020.1
EXECUTION ROCKS  NOT AVBL
WESTERN LI SOUND NOT AVBL
CENTRAL LI SOUND NOT AVBL
EASTERN LI SOUND NOT AVBL
ROBBINS REEF     1948                   160/ 15/ 15 1020.8
$$


>>>>>>>>>>>>>>>>>>>>>>>>>>>> KEY <<<<<<<<<<<<<<<<<<<<<<<<<<<
>                                                          <
>     SKY/WX - Sky Condition/Present Weather               <
>     TMP    - Temperature in Fahrenheit                   <
>     DP     - Dew Point in Fahrenheit                     <
>     RH     - Relative Humidity in Percent                <
>     WIND   - Direction (from) and Speed in MPH           <
>     PRES   - Mean Sea Level Pressure (inches of Hg)      <
>     WCI    - Wind Chill Index                            <
>     VSB    - VISIBILITY IN MILES                         <
>     HX     - HEAT INDEX                                  <
>     TC     - TEMPERATURE IN CELSIUS                      <
>     VRB    - VARIABLE WIND DIRECTION                     <
>                                                          <
>>>>>>>>>>>>>>>>>>>>>>>>>>>> KEY <<<<<<<<<<<<<<<<<<<<<<<<<<<




USA.gov is the U.S. government's official web portal to all federal, state and local government web resources and services.